SCP
3 3 3 2 2 2 2 2 1 1 1 1 1 2 2 3 3 3 2 1 0 0 0 0 0 0 1 1 1 2 2 2 2 2 2 2 2 2
3 3 3 2 2 2 3 2 1 1 1 1 1 2 2 2 2 3 3 2 1 0 0 0 0 0 0 1 1 1 1 2 2 2 2 2 2 2
3 3 3 3 3 3 3 2 2 1 1 1 2 2 3 2 2 2 3 3 2 1 0 0 0 0 0 0 0 1 1 1 1 1 1 2 2 2
3 3 3 3 3 4 3 2 2 1 1 1 2 2 3 3 3 2 2 2 2 1 0 0 0 0 0 0 0 0 0 0 0 1 1 2 2 2
3 3 3 3 4 4 3 2 2 1 1 1 1 2 3 4 3 3 2 2 1 1 0 0 0 0 0 0 0 0 0 0 0 0 1 1 1 1
3 3 3 3 4 4 3 2 2 1 1 1 1 2 3 4 3 3 3 2 1 1 1 0 0 0 0 0 0 0 0 0 0 0 0 0 1 1
3 3 3 3 3 2 2 2 2 2 2 2 2 2 3 3 3 3 2 2 2 2 2 1 1 1 1 0 0 0 0 0 0 0 0 0 0 0
3 3 3 2 2 1 1 1 1 2 2 2 2 2 3 3 3 3 2 2 2 2 3 2 2 2 2 1 1 0 0 0 0 0 0 0 0 0
3 3 3 2 2 2 2 1 1 1 1 2 2 2 3 4 4 3 3 2 2 2 2 2 2 3 3 2 1 0 0 0 0 0 0 0 0 0
3 3 3 3 2 2 3 3 2 2 1 1 1 2 3 4 4 4 3 3 2 2 2 2 2 2 2 2 1 0 0 0 0 0 0 0 0 0
3 3 3 3 2 2 2 3 3 3 2 1 1 1 1 2 3 3 4 3 2 2 2 2 2 2 2 1 1 0 0 0 0 0 0 0 0 0
3 3 2 2 1 1 1 2 3 3 3 2 1 1 1 1 1 2 3 3 2 2 2 3 3 2 2 1 1 1 0 0 0 0 0 0 0 0
3 2 2 1 0 0 1 1 2 3 3 3 2 2 2 2 2 2 3 3 3 2 2 3 3 2 1 1 1 1 1 1 0 0 0 0 0 0
2 2 1 0 0 0 0 0 1 1 2 3 3 2 3 3 3 4 4 4 4 3 3 3 3 2 1 1 1 1 1 1 1 1 0 0 0 0
1 1 0 0 0 0 0 0 0 1 2 3 3 3 3 3 3 3 4 5 5 4 3 3 4 3 2 1 1 1 1 1 1 1 1 1 1 0
0 0 0 0 0 0 1 1 1 1 1 2 2 2 2 2 2 2 2 3 3 3 3 3 4 5 3 1 1 1 1 1 1 1 1 1 1 1
0 0 0 0 0 1 1 1 1 1 1 1 1 1 1 1 1 1 1 1 1 1 2 2 3 3 2 1 1 1 1 1 1 1 1 1 1 1
0 0 0 0 0 1 1 1 1 1 1 1 1 0 0 0 0 0 1 1 0 0 1 1 1 1 1 1 1 1 1 1 1 0 0 0 0 0
0 0 0 0 0 0 0 1 1 1 1 1 1 1 0 0 0 0 0 0 0 0 0 0 0 0 0 0 0 0 0 0 0 0 0 0 0 0
0 0 0 0 0 0 1 1 1 1 1 1 1 1 1 1 1 1 1 1 0 0 0 0 0 0 0 0 0 0 0 0 0 0 0 0 0 0
0 0 0 0 0 1 1 1 1 1 1 1 0 1 1 1 1 1 1 1 1 0 0 0 0 0 0 0 0 0 0 0 0 0 0 0 0 0
0 0 0 0 1 1 1 1 1 1 1 0 0 1 1 1 1 1 1 1 0 0 0 0 0 0 0 0 0 0 0 0 0 0 0 0 0 0
0 0 0 0 1 1 1 1 1 1 1 1 1 1 1 1 1 1 1 0 0 0 0 0 0 0 0 0 0 0 0 0 0 0 0 0 0 0
Wind_Speed
3 3 3 3 2 3 2 2 3 3 4 3 2 2 3 2 5 4 4 8 9 9 10 10 11 11 10 10 10 10 10 10 9 9 10 11 11 11
2 3 3 2 2 2 2 2 2 3 3 3 3 2 2 3 5 4 5 8 10 10 10 11 11 11 11 11 10 11 11 11 11 11 11 12 11 11
3 3 3 3 3 2 2 2 2 2 3 3 2 2 3 3 3 4 4 5 6 10 11 11 11 12 12 11 11 11 11 11 12 12 13 12 12 13
3 3 3 3 3 2 2 3 3 3 3 4 3 3 3 3 4 4 4 5 4 8 10 11 11 11 11 11 11 11 11 11 11 12 12 13 13 13
3 3 3 3 3 2 3 3 3 3 2 3 3 2 2 2 2 3 4 3 4 5 8 9 11 12 12 12 11 11 11 12 12 12 12 12 12 12
3 3 3 3 3 3 3 3 3 2 2 2 3 3 2 2 2 2 2 2 3 3 4 5 8 11 11 11 11 11 11 12 12 11 12 12 12 12
2 2 2 2 2 2 3 2 2 2 2 2 3 2 2 1 2 2 2 2 3 2 2 3 3 4 6 8 10 11 12 12 11 11 11 11 11 11
2 2 2 1 2 3 3 4 4 4 3 3 3 3 4 3 2 3 2 2 3 2 2 3 2 3 4 5 9 11 12 12 12 12 12 12 11 11
2 2 3 2 1 2 3 4 5 7 7 5 4 5 4 3 3 3 3 3 4 3 2 3 3 3 4 5 9 12 12 12 12 11 11 11 11 10
2 2 1 2 2 3 3 3 3 3 4 4 5 5 4 3 3 4 4 4 4 3 3 3 3 3 3 2 7 9 11 11 11 11 11 11 11 10
2 2 1 1 2 3 2 3 3 3 4 5 5 5 6 5 4 2 3 3 4 4 3 3 3 3 2 1 3 8 9 9 10 11 11 12 11 9
2 1 1 2 3 3 2 3 4 4 4 4 4 5 5 5 6 5 4 3 3 3 2 2 2 2 2 2 2 3 4 6 8 8 9 11 10 6
3 1 1 2 3 4 4 4 5 5 5 5 4 3 3 3 3 3 3 4 4 4 2 2 2 2 2 1 1 2 3 3 3 4 7 9 10 9
3 2 2 2 4 5 4 5 7 6 3 3 3 2 2 2 2 3 3 4 4 4 4 2 2 2 2 2 2 1 2 2 3 3 4 6 8 9
3 4 5 6 6 4 4 5 4 3 2 2 2 2 2 2 2 2 3 3 3 3 3 3 2 2 2 2 2 2 2 2 2 2 3 3 4 4
4 4 5 5 5 4 4 3 2 2 2 2 2 2 2 1 2 2 2 2 1 2 2 2 2 2 2 2 2 2 2 2 1 1 1 1 2 3
4 3 3 2 2 2 2 2 2 2 2 2 2 2 2 2 2 1 1 1 1 1 1 1 1 1 1 1 2 2 2 2 2 1 1 0 0 1
3 3 3 3 3 3 2 2 2 2 2 2 2 2 2 2 1 1 0 1 1 1 1 1 1 0 1 1 1 3 2 1 1 1 1 1 1 1
2 3 3 3 3 3 2 2 2 1 1 2 2 2 2 1 1 1 1 1 1 1 1 1 1 1 1 2 2 1 1 1 1 1 1 1 1 1
2 3 3 3 2 2 2 2 2 1 1 1 2 2 1 1 1 1 1 1 1 1 1 1 0 0 1 2 1 1 1 2 1 2 1 1 1 1
2 2 3 3 3 2 2 1 1 1 2 2 2 2 2 1 1 1 1 2 2 1 1 1 1 2 1 1 1 1 1 1 2 2 2 2 2 1
2 2 2 2 2 3 3 2 1 1 1 2 2 1 2 2 2 2 2 2 2 2 2 2 2 1 1 1 1 1 1 0 0 0 2 1 2 3
2 2 2 2 2 2 3 3 3 2 2 2 2 1 2 2 2 2 2 2 2 2 2 2 1 1 1 2 1 1 1 1 1 1 1 2 1 3
Wind_Direction
253 251 248 251 252 244 245 239 239 248 247 244 247 217 203 191 185 193 191 199 200 206 211 217 220 222 222 223 221 219 218 218 218 218 219 220 220 222
253 257 258 258 267 259 245 239 234 243 251 239 234 228 221 224 201 199 202 203 205 208 213 219 222 221 221 221 220 218 218 220 220 220 220 222 221 223
258 260 264 261 262 254 251 252 246 242 256 265 255 246 234 226 211 209 210 206 201 207 213 217 219 220 218 217 218 218 218 219 220 220 221 222 222 223
257 261 263 263 260 261 261 264 261 248 240 255 261 251 243 228 214 216 222 219 205 206 210 213 213 213 214 216 219 220 220 221 221 221 221 221 222 222
254 256 254 255 256 252 255 262 266 267 243 247 259 257 250 239 228 240 232 225 226 211 210 212 212 213 215 217 217 219 220 220 220 221 221 221 220 220
263 259 247 239 249 255 253 253 262 268 255 248 252 259 256 249 223 240 256 237 240 230 221 215 214 215 216 217 216 217 217 217 218 220 220 220 220 220
272 269 260 221 233 252 271 268 267 264 262 260 258 264 265 252 238 243 254 254 248 235 220 224 209 212 216 220 218 217 215 214 214 215 218 219 220 219
279 278 253 228 235 244 261 260 248 247 250 249 254 245 251 251 246 243 240 251 259 242 219 238 223 222 216 212 211 210 211 212 212 213 214 214 215 216
297 297 294 299 298 292 266 260 258 252 242 246 252 251 247 243 239 246 242 243 252 242 238 249 230 230 229 222 204 204 205 205 206 209 213 216 216 217
301 299 301 330 317 314 293 276 267 268 255 245 248 258 261 246 238 238 240 248 250 245 226 242 245 243 239 202 193 196 201 205 207 209 210 214 218 220
272 290 275 278 304 305 298 295 294 290 276 266 250 248 253 252 249 250 243 238 257 254 229 224 241 246 242 217 199 196 200 206 210 213 214 215 218 219
259 223 242 253 255 269 270 281 283 287 288 279 260 255 246 242 238 229 231 234 251 261 239 217 234 239 258 237 198 181 199 212 213 215 217 219 213 208
309 296 272 236 252 263 266 267 272 282 280 269 264 255 240 230 227 222 220 223 237 250 245 227 238 234 227 243 233 189 190 197 200 217 219 220 211 200
311 320 324 279 277 275 270 275 284 293 282 278 277 272 255 240 228 223 220 227 234 243 253 239 233 224 222 249 261 238 218 204 196 200 199 202 210 214
304 312 305 294 287 278 261 270 280 283 285 283 283 280 266 254 238 227 225 227 231 241 249 240 226 219 213 231 243 246 251 243 213 206 194 187 190 193
294 298 281 278 277 277 286 273 258 272 275 280 287 286 267 243 249 243 231 212 217 250 248 240 228 212 228 233 225 242 239 229 229 221 200 189 176 178
305 289 294 299 297 289 282 275 259 264 277 284 281 290 299 291 273 260 250 249 230 235 248 256 231 197 216 231 231 236 235 228 221 215 208 236 234 192
306 297 300 300 300 304 302 296 286 278 273 267 267 268 276 286 293 294 246 247 269 274 273 265 237 243 252 284 264 239 243 239 223 205 200 218 249 251
285 289 293 300 302 308 309 305 298 294 285 279 279 279 282 298 318 321 321 319 305 298 289 284 255 212 240 265 288 270 231 243 236 240 221 213 225 225
272 291 301 304 302 308 312 312 317 323 313 305 296 291 287 288 304 312 313 313 314 317 316 326 321 215 234 255 265 297 268 231 228 225 232 218 201 180
316 316 319 320 319 314 305 299 301 298 301 290 286 295 299 292 297 313 321 317 297 281 278 278 247 206 210 194 222 274 288 221 200 209 219 207 211 209
321 321 323 330 334 334 325 326 326 318 320 315 320 321 315 301 295 293 301 300 285 283 276 258 232 204 189 196 224 245 273 286 147 317 333 247 202 201
319 315 319 326 332 337 332 330 332 333 330 317 309 310 307 301 290 287 281 272 276 278 275 274 266 242 215 199 208 225 259 275 229 155 331 318 162 154